Miscellaneous Local Product
Issued by NWS Hastings, NE

Home | Current Version | Previous Version | Graphics & Text | Print | Product List | Glossary On
Versions: 1 2 3 4 5 6 7 8 9 10 11 12 13 14 15 16 17 18 19 20 21 22 23 24 25 26 27 28 29 30 31 32 33 34 35 36 37 38 39 40 41 42 43 44 45 46 47 48 49 50
640
AXUS43 KGID 220502
MISGRI

GID CWA HOURLY WEATHER ROUNDUP
NATIONAL WEATHER SERVICE HASTINGS NE
1200 AM CDT THU JUN 22 2017

NOTE: "FAIR" INDICATES FEW OR NO CLOUDS BELOW 12,000 FEET WITH NO
SIGNIFICANT WEATHER AND/OR OBSTRUCTIONS TO VISIBILITY.

...SOUTH CENTRAL NEBRASKA...

CITY           SKY/WX    TMP DP  RH WIND       PRES   REMARKS
GRAND ISLAND   CLOUDY    81  62  52 S21       29.70S
HASTINGS       CLOUDY    80  56  43 S13G22    29.72F
KEARNEY        CLOUDY    79  61  53 S16       29.72F
ORD            CLEAR     75  69  81 S5        29.68R
YORK           CLOUDY    82  55  39 S13G22    29.72S
AURORA         CLOUDY    84  56  38 S16G22    29.71S
LEXINGTON      CLEAR     78  67  69 S17G23    29.72S
HOLDREGE       CLOUDY    75  62  63 S17G23    29.74F
HEBRON         CLOUDY    82  58  43 S16       29.76F

...NEBRASKA PANHANDLE...

CITY           SKY/WX    TMP DP  RH WIND       PRES   REMARKS
CHADRON        CLEAR     66  58  75 N8        29.74S
ALLIANCE       CLEAR     68  56  65 S8        29.77F
SCOTTSBLUFF    PTCLDY    71  54  54 SW3       29.79F
SIDNEY         CLEAR     63  48  58 S6        29.85S

...WESTERN AND NORTH CENTRAL NEBRASKA...

CITY           SKY/WX    TMP DP  RH WIND       PRES   REMARKS
VALENTINE      CLEAR     80  59  48 E7        29.70F
AINSWORTH      CLEAR     72  64  75 E6        29.71S
ONEILL         CLEAR     76  68  76 N7        29.69F
BROKEN BOW     CLEAR     76  66  71 S7        29.71S
IMPERIAL       CLEAR     72  49  44 SE5       29.75F
NORTH PLATTE   CLEAR     72  61  68 E5        29.72F
MCCOOK         CLEAR     80  55  42 SW12      29.71F

...EASTERN NEBRASKA...

CITY           SKY/WX    TMP DP  RH WIND       PRES   REMARKS
NORFOLK        CLOUDY    84  60  44 S18       29.67R
SO SIOUX CITY  MOCLDY    84  62  47 S14G23    29.64S
TEKAMAH        CLEAR     83  59  44 S15       29.69R
COLUMBUS       CLOUDY    84  58  40 S14G24    29.70R
ALBION         CLOUDY    85  66  53 S10       29.69R
OMAHA EPPLEY   PTCLDY    84  60  44 S20       29.72R
OFFUTT AFB     CLEAR     81  61  50 S13       29.73R
MILLARD        CLEAR     85  62  47 S12       29.73R
LINCOLN        MOCLDY    83  59  44 S17       29.72R
NEBRASKA CITY  MOCLDY    80  64  57 S15G23    29.76R
BEATRICE       CLOUDY    81  62  52 S20G25    29.75R
FALLS CITY     CLOUDY    79  63  57 S12G20    29.78R

...NORTHERN KANSAS...

CITY           SKY/WX    TMP DP  RH WIND       PRES   REMARKS
GOODLAND       CLEAR     75  57  53 S16       29.82R
HILL CITY      PTCLDY    77  67  71 E9        29.76R THUNDER
NORTON         CLEAR     79  61  53 E16G22    29.76R
PHILLIPSBURG   CLEAR     82  55  39 E18       29.77F
SMITH CENTER   MOCLDY    70  63  78 E12       29.84R
HAYS           CLOUDY    80  61  52 SE12      29.73R
RUSSELL        MOCLDY    81  54  39 SE21      29.73R
CONCORDIA      MOCLDY    81  60  48 S15G24    29.78R
SALINA         MOCLDY    83  58  42 S18G29    29.77S
TOPEKA         CLEAR     76  66  71 S8        29.82R



USA.gov is the U.S. government's official web portal to all federal, state and local government web resources and services.